• In Moldova, Republic
  • List of Countries
  • For 7 days
  • Water Temperature
  • Satellite Maps
  • Weather Map
  • Weather Widgets
  • user-avatar
    Login

    Hourly Weather Prutz

    Today, 27 May, Saturday

    Time Temperature Precipitation Wind Pressure Humidity
    00:00 +6°C° 0 mm 1 mps 634 mmHg 95%
    01:00 +4°C° 0 mm 1 mps 633 mmHg 94%
    02:00 +4°C° 0 mm 1 mps 633 mmHg 92%
    03:00 +4°C° 0 mm 1 mps 633 mmHg 90%
    04:00 +4°C° 0 mm 1 mps 633 mmHg 88%
    05:00 +7°C° 0 mm 1 mps 635 mmHg 80%
    06:00 +10°C° 0 mm 1 mps 636 mmHg 72%
    07:00 +12°C° 0 mm 0 mps 638 mmHg 64%
    08:00 +15°C° 0 mm 1 mps 638 mmHg 57%
    09:00 +18°C° 0 mm 1 mps 639 mmHg 49%
    10:00 +20°C° 0 mm 1 mps 639 mmHg 42%
    11:00 +20°C° 0 mm 1 mps 640 mmHg 41%
    12:00 +21°C° 0 mm 1 mps 640 mmHg 39%
    13:00 +21°C° 0 mm 2 mps 640 mmHg 38%
    14:00 +21°C° 0 mm 2 mps 640 mmHg 40%
    15:00 +21°C° 0 mm 2 mps 639 mmHg 42%
    16:00 +20°C° 0 mm 2 mps 639 mmHg 44%
    17:00 +19°C° 0.1 mm 2 mps 639 mmHg 56%
    18:00 +18°C° 0.1 mm 1 mps 638 mmHg 67%
    19:00 +15°C° 0.1 mm 1 mps 638 mmHg 79%
    20:00 +12°C° 0 mm 1 mps 637 mmHg 84%
    21:00 +10°C° 0 mm 1 mps 636 mmHg 89%
    22:00 +6°C° 0 mm 0 mps 636 mmHg 95%
    23:00 +7°C° 0 mm 1 mps 636 mmHg 94%

    Tomorrow, 28 May, Sunday

    Time Temperature Precipitation Wind Pressure Humidity
    00:00 +7°C° 0 mm 1 mps 636 mmHg 93%
    01:00 +7°C° 0 mm 1 mps 636 mmHg 92%
    02:00 +7°C° 0 mm 1 mps 636 mmHg 92%
    03:00 +8°C° 0 mm 1 mps 636 mmHg 92%
    04:00 +8°C° 0 mm 1 mps 636 mmHg 92%
    05:00 +10°C° 0 mm 1 mps 637 mmHg 86%
    06:00 +12°C° 0 mm 1 mps 638 mmHg 80%
    07:00 +14°C° 0 mm 1 mps 639 mmHg 74%
    08:00 +18°C° 0 mm 1 mps 640 mmHg 63%
    09:00 +20°C° 0 mm 1 mps 641 mmHg 53%
    10:00 +22°C° 0 mm 1 mps 641 mmHg 43%
    11:00 +23°C° 0 mm 1 mps 641 mmHg 41%
    12:00 +23°C° 0 mm 1 mps 641 mmHg 39%
    13:00 +24°C° 0 mm 1 mps 641 mmHg 36%
    14:00 +23°C° 0.1 mm 2 mps 641 mmHg 39%
    15:00 +23°C° 0.1 mm 2 mps 641 mmHg 42%
    16:00 +23°C° 0.1 mm 2 mps 640 mmHg 45%
    17:00 +21°C° 0.1 mm 1 mps 640 mmHg 57%
    18:00 +19°C° 0.1 mm 1 mps 639 mmHg 69%
    19:00 +16°C° 0.1 mm 1 mps 638 mmHg 80%
    20:00 +14°C° 0 mm 1 mps 638 mmHg 85%
    21:00 +10°C° 0 mm 0 mps 637 mmHg 90%
    22:00 +7°C° 0 mm 0 mps 636 mmHg 95%
    23:00 +9°C° 0 mm 1 mps 636 mmHg 95%

    Day after tomorrow, 29 May, Monday

    Time Temperature Precipitation Wind Pressure Humidity
    00:00 +9°C° 0 mm 1 mps 636 mmHg 94%
    01:00 +10°C° 0 mm 1 mps 636 mmHg 94%
    02:00 +9°C° 0 mm 1 mps 636 mmHg 93%
    03:00 +9°C° 0 mm 1 mps 636 mmHg 93%
    04:00 +9°C° 0 mm 1 mps 635 mmHg 92%
    05:00 +11°C° 0 mm 1 mps 636 mmHg 86%
    06:00 +13°C° 0 mm 1 mps 637 mmHg 80%
    07:00 +15°C° 0 mm 0 mps 638 mmHg 75%
    08:00 +17°C° 0 mm 0 mps 638 mmHg 64%
    09:00 +21°C° 0 mm 1 mps 639 mmHg 54%
    10:00 +23°C° 0 mm 1 mps 640 mmHg 44%
    11:00 +24°C° 0 mm 1 mps 639 mmHg 42%
    12:00 +24°C° 0 mm 1 mps 639 mmHg 41%
    13:00 +25°C° 0 mm 2 mps 639 mmHg 39%
    14:00 +24°C° 0.4 mm 2 mps 639 mmHg 47%
    15:00 +23°C° 0.4 mm 2 mps 638 mmHg 55%
    16:00 +21°C° 0.4 mm 2 mps 637 mmHg 63%
    17:00 +20°C° 0.5 mm 1 mps 637 mmHg 71%
    18:00 +19°C° 0.5 mm 1 mps 637 mmHg 79%
    19:00 +18°C° 0.5 mm 1 mps 636 mmHg 87%
    20:00 +15°C° 0.2 mm 1 mps 636 mmHg 90%
    21:00 +11°C° 0.2 mm 0 mps 635 mmHg 93%
    22:00 +9°C° 0.2 mm 0 mps 634 mmHg 96%
    23:00 +9°C° 0.6 mm 0 mps 634 mmHg 96%

    30 May, Tuesday

    Time Temperature Precipitation Wind Pressure Humidity
    00:00 +11°C° 0.6 mm 1 mps 635 mmHg 96%
    01:00 +11°C° 0.6 mm 1 mps 635 mmHg 96%
    02:00 +11°C° 0.3 mm 1 mps 635 mmHg 96%
    03:00 +11°C° 0.3 mm 1 mps 634 mmHg 96%
    04:00 +10°C° 0.3 mm 1 mps 634 mmHg 96%
    05:00 +11°C° 0.1 mm 0 mps 635 mmHg 94%
    06:00 +13°C° 0.1 mm 0 mps 636 mmHg 91%
    07:00 +14°C° 0.1 mm 0 mps 636 mmHg 89%
    08:00 +16°C° 0.2 mm 0 mps 637 mmHg 83%
    09:00 +17°C° 0.2 mm 0 mps 637 mmHg 77%
    10:00 +20°C° 0.2 mm 1 mps 638 mmHg 71%
    11:00 +20°C° 0.9 mm 1 mps 638 mmHg 73%
    12:00 +20°C° 0.9 mm 1 mps 638 mmHg 74%
    13:00 +20°C° 0.9 mm 1 mps 637 mmHg 76%
    14:00 +20°C° 1.3 mm 1 mps 637 mmHg 78%
    15:00 +19°C° 1.3 mm 1 mps 637 mmHg 81%
    16:00 +19°C° 1.3 mm 1 mps 637 mmHg 83%
    17:00 +18°C° 1.1 mm 1 mps 637 mmHg 87%
    18:00 +16°C° 1.1 mm 1 mps 637 mmHg 90%
    19:00 +14°C° 1.1 mm 0 mps 637 mmHg 94%
    20:00 +14°C° 1.3 mm 1 mps 637 mmHg 95%
    21:00 +13°C° 1.3 mm 1 mps 637 mmHg 96%
    22:00 +12°C° 1.3 mm 1 mps 637 mmHg 97%
    23:00 +12°C° 0.6 mm 1 mps 636 mmHg 97%

    31 May, Wednesday

    Time Temperature Precipitation Wind Pressure Humidity
    00:00 +12°C° 0.6 mm 1 mps 636 mmHg 98%
    01:00 +11°C° 0.6 mm 1 mps 636 mmHg 98%
    02:00 +11°C° 0.2 mm 1 mps 636 mmHg 98%
    03:00 +10°C° 0.2 mm 1 mps 636 mmHg 98%
    04:00 +8°C° 0.2 mm 0 mps 636 mmHg 98%
    05:00 +10°C° 0.1 mm 0 mps 636 mmHg 96%
    06:00 +12°C° 0.1 mm 0 mps 637 mmHg 94%
    07:00 +13°C° 0.1 mm 0 mps 638 mmHg 92%
    08:00 +15°C° 0.2 mm 0 mps 638 mmHg 85%
    09:00 +18°C° 0.2 mm 1 mps 639 mmHg 79%
    10:00 +19°C° 0.2 mm 1 mps 639 mmHg 72%
    11:00 +20°C° 0.6 mm 1 mps 639 mmHg 72%
    12:00 +20°C° 0.6 mm 1 mps 639 mmHg 73%
    13:00 +20°C° 0.6 mm 1 mps 639 mmHg 74%
    14:00 +20°C° 1.1 mm 1 mps 638 mmHg 76%
    15:00 +20°C° 1.1 mm 1 mps 638 mmHg 79%
    16:00 +19°C° 1.1 mm 1 mps 638 mmHg 82%
    17:00 +18°C° 1.1 mm 1 mps 638 mmHg 86%
    18:00 +16°C° 1.1 mm 1 mps 637 mmHg 90%
    19:00 +16°C° 1.1 mm 1 mps 637 mmHg 93%
    20:00 +14°C° 0.8 mm 1 mps 637 mmHg 95%
    21:00 +12°C° 0.8 mm 0 mps 637 mmHg 97%
    22:00 +10°C° 0.8 mm 0 mps 636 mmHg 98%
    23:00 +10°C° 0.2 mm 0 mps 636 mmHg 98%

    1 June, Thursday

    Time Temperature Precipitation Wind Pressure Humidity
    00:00 +10°C° 0.2 mm 0 mps 636 mmHg 98%
    01:00 +9°C° 0.2 mm 0 mps 636 mmHg 98%
    02:00 +9°C° 0 mm 0 mps 635 mmHg 98%
    03:00 +8°C° 0 mm 0 mps 635 mmHg 98%
    04:00 +8°C° 0 mm 0 mps 635 mmHg 98%
    05:00 +10°C° 0 mm 0 mps 636 mmHg 96%
    06:00 +12°C° 0 mm 0 mps 637 mmHg 94%
    07:00 +13°C° 0 mm 0 mps 637 mmHg 91%
    08:00 +15°C° 0.4 mm 0 mps 638 mmHg 86%
    09:00 +18°C° 0.4 mm 1 mps 638 mmHg 81%
    10:00 +19°C° 0.4 mm 1 mps 638 mmHg 76%
    11:00 +20°C° 1.1 mm 1 mps 638 mmHg 73%
    12:00 +20°C° 1.1 mm 1 mps 638 mmHg 71%
    13:00 +21°C° 1.1 mm 1 mps 638 mmHg 69%
    14:00 +20°C° 1.4 mm 1 mps 638 mmHg 71%
    15:00 +20°C° 1.4 mm 1 mps 638 mmHg 74%
    16:00 +19°C° 1.4 mm 1 mps 637 mmHg 77%
    17:00 +18°C° 1.6 mm 1 mps 637 mmHg 82%
    18:00 +16°C° 1.6 mm 1 mps 637 mmHg 87%
    19:00 +15°C° 1.6 mm 1 mps 636 mmHg 92%
    20:00 +14°C° 1.2 mm 1 mps 636 mmHg 94%
    21:00 +12°C° 1.2 mm 1 mps 636 mmHg 96%
    22:00 +11°C° 1.2 mm 1 mps 635 mmHg 97%
    23:00 +10°C° 0.8 mm 0 mps 635 mmHg 97%
    Show more